Location: Newark
(31.8769°N, 91.1411°W)
Time: 19:37:59
(UTC+00:00)

N. Korean satellite - Pass Details

Date: 24 January 2020
Orbit: 456 x 505 km, 97.2° (Epoch: 26 February)

Event Time Altitude Azimuth Distance (km) Brightness Sun altitude
Rises 10:55:57 0° 33° (NNE) 2,542 10.5 -26.8°
Reaches altitude 10° 10:58:39 10° 56° (NE) 1,669 9.9 -26.2°
Maximum altitude 11:00:55 16° 95° (E) 1,343 9.7 -25.7°
Drops below altitude 10° 11:03:13 10° 135° (SE) 1,679 10.0 -25.2°
Sets 11:05:55 0° 157° (SSE) 2,565 10.6 -24.7°
